This is the latest recevied weather packets stored in our database for station/object KF0JJO. If no packets are shown the sender has not sent any weather packets the latest 10 day(s).
| Time | Temp. | Humidity | Pressure | Rain* | Wind** | Luminosity | Snow |
|---|---|---|---|---|---|---|---|
| 1777654003 | 9.44° C | 33% | 1050.6 hPa | 0 mm | - | 145 W/m² | - |
| 1777653699 | 9.44° C | 33% | 1050.5 hPa | 0 mm | - | 461 W/m² | - |
| 1777653396 | 10° C | 33% | 1050.5 hPa | 0 mm | - | 123 W/m² | - |
| 1777653093 | 9.44° C | 33% | 1050.6 hPa | 0 mm | - | 176 W/m² | - |
| 1777652789 | 8.89° C | 36% | 1050.7 hPa | 0 mm | - | 138 W/m² | - |
| 1777652486 | 8.89° C | 35% | 1050.5 hPa | 0 mm | - | 353 W/m² | - |
| 1777652184 | 8.89° C | 33% | 1050.5 hPa | 0 mm | - | 173 W/m² | - |
| 1777651880 | 8.89° C | 33% | 1050.6 hPa | 0 mm | - | 189 W/m² | - |
| 1777651577 | 8.89° C | 35% | 1050.7 hPa | 0 mm | - | 102 W/m² | - |
| 1777651274 | 8.89° C | 34% | 1050.5 hPa | 0 mm | - | 97 W/m² | - |
| 1777650971 | 8.89° C | 34% | 1050.6 hPa | 0 mm | - | 110 W/m² | - |
| 1777650668 | 8.89° C | 33% | 1050.8 hPa | 0 mm | - | 153 W/m² | - |
| 1777650365 | 8.89° C | 32% | 1050.6 hPa | 0 mm | - | 114 W/m² | - |
| 1777650061 | 8.89° C | 33% | 1050.8 hPa | 0 mm | - | 68 W/m² | - |
| 1777649759 | 8.33° C | 37% | 1050.6 hPa | 0 mm | - | 177 W/m² | - |
| 1777649456 | 8.33° C | 35% | 1050.7 hPa | 0 mm | - | 60 W/m² | - |
| 1777649153 | 8.33° C | 34% | 1050.5 hPa | 0 mm | - | 68 W/m² | - |
| 1777648850 | 8.33° C | 35% | 1050.7 hPa | 0 mm | - | 167 W/m² | - |
| 1777648546 | 8.33° C | 36% | 1050.7 hPa | 0 mm | - | 58 W/m² | - |
| 1777648244 | 8.33° C | 34% | 1050.6 hPa | 0 mm | - | 114 W/m² | - |
| 1777647944 | 7.78° C | 35% | 1050.5 hPa | 0 mm | - | 105 W/m² | - |
| 1777647641 | 8.33° C | 36% | 1050.7 hPa | 0 mm | - | 117 W/m² | - |
| 1777647337 | 8.33° C | 37% | 1050.6 hPa | 0 mm | - | 99 W/m² | - |
| 1777647036 | 7.78° C | 38% | 1050.6 hPa | 0 mm | - | 134 W/m² | - |
| 1777646731 | 7.78° C | 39% | 1050.7 hPa | 0 mm | - | 117 W/m² | - |
* Rain latest hour (hover to see other rain measurements)
** Current wind speed in m/s (hover to see current wind gust speed)